|
ตารางข้อมูล |
ค้นข้อมูล1 |
ค้นข้อมูล2 |
ค่าสูงสุด-ต่ำสุด |
Select Sensor -->| 20402 | 4529A | 4529C | 4529D | 89M1A | 89M1B | หน้าจอย่อ | 4529 |
ข้อมูลรวม (ยังไม่ได้เลือก Sensor)
| ID | Date Time | Room | Temp | Humidity | RSSI | Time |
|---|
| 1155718 | 2026-09-06 03:04:55 | 20402 | 30.4 °C | 53.1 % | | 03:04 |
| 1155717 | 2026-09-06 03:04:09 | 4529C | 28.7 °C | 44.7 % | | 03:04 |
| 1155716 | 2026-09-06 03:01:28 | 89M1B | 31.7 °C | 68.6 % | | 03:01 |
| 1155715 | 2026-09-06 03:01:19 | 89M1A | 29.3 °C | 74.0 % | | 03:01 |
| 1155714 | 2026-09-06 03:00:56 | 4529A | 29.8 °C | 70.2 % | | 03:00 |
| 1155713 | 2026-09-06 03:00:10 | 4529D | 30.4 °C | 69.0 % | | 03:00 |
| 1155712 | 2026-09-06 02:54:45 | 20402 | 30.5 °C | 52.7 % | | 02:54 |
| 1155711 | 2026-09-06 02:54:06 | 4529C | 28.9 °C | 47.5 % | | 02:54 |
| 1155710 | 2026-09-06 02:51:50 | 89M1B | 31.8 °C | 68.7 % | | 02:51 |
| 1155709 | 2026-09-06 02:51:41 | 89M1A | 29.2 °C | 74.7 % | | 02:51 |
| 1155708 | 2026-09-06 02:50:46 | 4529A | 29.5 °C | 65.5 % | | 02:50 |
| 1155707 | 2026-09-06 02:50:35 | 4529D | 30.4 °C | 68.8 % | | 02:50 |
| 1155706 | 2026-09-06 02:44:35 | 20402 | 30.5 °C | 52.4 % | | 02:44 |
| 1155705 | 2026-09-06 02:44:04 | 4529C | 28.7 °C | 47.1 % | | 02:44 |
| 1155704 | 2026-09-06 02:42:11 | 89M1B | 31.9 °C | 68.7 % | | 02:42 |
| 1155703 | 2026-09-06 02:42:04 | 89M1A | 29.3 °C | 73.8 % | | 02:42 |
| 1155702 | 2026-09-06 02:41:01 | 4529D | 30.4 °C | 68.6 % | | 02:41 |
| 1155701 | 2026-09-06 02:40:35 | 4529A | 29.5 °C | 68.5 % | | 02:40 |
| 1155700 | 2026-09-06 02:34:25 | 20402 | 30.5 °C | 52.2 % | | 02:34 |
| 1155699 | 2026-09-06 02:34:02 | 4529C | 28.3 °C | 44.1 % | | 02:34 |
| 1155698 | 2026-09-06 02:32:33 | 89M1B | 31.9 °C | 68.6 % | | 02:32 |
| 1155697 | 2026-09-06 02:32:26 | 89M1A | 29.3 °C | 73.9 % | | 02:32 |
| 1155696 | 2026-09-06 02:31:28 | 4529D | 30.4 °C | 68.5 % | | 02:31 |
| 1155695 | 2026-09-06 02:30:24 | 4529A | 29.8 °C | 69.8 % | | 02:30 |
| 1155694 | 2026-09-06 02:24:15 | 20402 | 30.5 °C | 52.0 % | | 02:24 |
| 1155693 | 2026-09-06 02:23:59 | 4529C | 28.3 °C | 42.9 % | | 02:23 |
| 1155692 | 2026-09-06 02:22:53 | 89M1B | 31.9 °C | 68.6 % | | 02:22 |
| 1155691 | 2026-09-06 02:22:49 | 89M1A | 29.1 °C | 74.0 % | | 02:22 |
| 1155690 | 2026-09-06 02:21:55 | 4529D | 30.5 °C | 68.4 % | | 02:21 |
| 1155689 | 2026-09-06 02:20:12 | 4529A | 29.9 °C | 67.2 % | | 02:20 |
| 1155688 | 2026-09-06 02:14:05 | 20402 | 30.6 °C | 51.7 % | | 02:14 |
| 1155687 | 2026-09-06 02:13:57 | 4529C | 28.3 °C | 42.1 % | | 02:13 |
| 1155686 | 2026-09-06 02:13:15 | 89M1B | 31.8 °C | 68.5 % | | 02:13 |
| 1155685 | 2026-09-06 02:13:11 | 89M1A | 29.2 °C | 73.9 % | | 02:13 |
| 1155684 | 2026-09-06 02:12:21 | 4529D | 30.3 °C | 68.0 % | | 02:12 |
| 1155683 | 2026-09-06 02:10:01 | 4529A | 30.0 °C | 65.0 % | | 02:10 |
| 1155682 | 2026-09-06 02:03:55 | 20402 | 30.5 °C | 51.7 % | | 02:03 |
| 1155681 | 2026-09-06 02:03:54 | 4529C | 28.8 °C | 43.5 % | | 02:03 |
| 1155680 | 2026-09-06 02:03:36 | 89M1B | 31.9 °C | 68.6 % | | 02:03 |
| 1155679 | 2026-09-06 02:03:34 | 89M1A | 29.3 °C | 74.0 % | | 02:03 |
| 1155678 | 2026-09-06 02:02:48 | 4529D | 30.6 °C | 68.0 % | | 02:02 |
| 1155677 | 2026-09-06 01:59:50 | 4529A | 31.0 °C | 68.1 % | | 01:59 |
| 1155676 | 2026-09-06 01:53:57 | 89M1B | 32.0 °C | 68.6 % | | 01:53 |
| 1155675 | 2026-09-06 01:53:56 | 89M1A | 29.2 °C | 74.5 % | | 01:53 |
| 1155674 | 2026-09-06 01:53:52 | 4529C | 28.9 °C | 44.4 % | | 01:53 |
| 1155673 | 2026-09-06 01:53:42 | 20402 | 30.6 °C | 51.2 % | | 01:53 |
| 1155672 | 2026-09-06 01:53:14 | 4529D | 30.6 °C | 67.9 % | | 01:53 |
| 1155671 | 2026-09-06 01:49:44 | 4529A | 31.0 °C | 68.1 % | | 01:49 |
| 1155670 | 2026-09-06 01:44:19 | 89M1B | 32.1 °C | 68.5 % | | 01:44 |
| 1155669 | 2026-09-06 01:44:19 | 89M1A | 29.1 °C | 74.6 % | | 01:44 |
| 1155668 | 2026-09-06 01:43:49 | 4529C | 28.8 °C | 45.9 % | | 01:43 |
| 1155667 | 2026-09-06 01:43:41 | 4529D | 30.7 °C | 67.7 % | | 01:43 |
| 1155666 | 2026-09-06 01:43:32 | 20402 | 30.6 °C | 50.9 % | | 01:43 |
| 1155665 | 2026-09-06 01:39:39 | 4529A | 30.7 °C | 68.6 % | | 01:39 |
| 1155664 | 2026-09-06 01:34:42 | 89M1A | 29.6 °C | 73.5 % | | 01:34 |
| 1155663 | 2026-09-06 01:34:40 | 89M1B | 32.1 °C | 68.5 % | | 01:34 |
| 1155662 | 2026-09-06 01:34:07 | 4529D | 30.7 °C | 67.5 % | | 01:34 |
| 1155661 | 2026-09-06 01:33:47 | 4529C | 28.6 °C | 44.5 % | | 01:33 |
| 1155660 | 2026-09-06 01:33:22 | 20402 | 30.6 °C | 50.8 % | | 01:33 |
| 1155659 | 2026-09-06 01:29:34 | 4529A | 30.2 °C | 69.7 % | | 01:29 |
| 1155658 | 2026-09-06 01:25:04 | 89M1A | 29.6 °C | 73.5 % | | 01:25 |
| 1155657 | 2026-09-06 01:25:01 | 89M1B | 32.1 °C | 68.5 % | | 01:25 |
| 1155656 | 2026-09-06 01:24:34 | 4529D | 30.1 °C | 67.2 % | | 01:24 |
| 1155655 | 2026-09-06 01:23:45 | 4529C | 28.3 °C | 42.9 % | | 01:23 |
| 1155654 | 2026-09-06 01:23:12 | 20402 | 30.6 °C | 50.7 % | | 01:23 |
| 1155653 | 2026-09-06 01:19:29 | 4529A | 30.5 °C | 68.8 % | | 01:19 |
| 1155652 | 2026-09-06 01:15:26 | 89M1A | 29.8 °C | 73.7 % | | 01:15 |
| 1155651 | 2026-09-06 01:15:22 | 89M1B | 32.2 °C | 68.5 % | | 01:15 |
| 1155650 | 2026-09-06 01:15:00 | 4529D | 30.6 °C | 67.4 % | | 01:15 |
| 1155649 | 2026-09-06 01:13:42 | 4529C | 28.3 °C | 41.6 % | | 01:13 |
| 1155648 | 2026-09-06 01:13:02 | 20402 | 30.6 °C | 50.7 % | | 01:13 |
| 1155647 | 2026-09-06 01:09:18 | 4529A | 30.0 °C | 68.5 % | | 01:09 |
| 1155646 | 2026-09-06 01:05:49 | 89M1A | 29.4 °C | 73.8 % | | 01:05 |
| 1155645 | 2026-09-06 01:05:44 | 89M1B | 32.0 °C | 68.4 % | | 01:05 |
| 1155644 | 2026-09-06 01:05:26 | 4529D | 30.1 °C | 66.8 % | | 01:05 |
| 1155643 | 2026-09-06 01:03:40 | 4529C | 28.3 °C | 40.3 % | | 01:03 |
| 1155642 | 2026-09-06 01:02:52 | 20402 | 30.7 °C | 50.7 % | | 01:02 |
| 1155641 | 2026-09-06 00:59:06 | 4529A | 29.3 °C | 65.2 % | | 00:59 |
| 1155640 | 2026-09-06 00:56:12 | 89M1A | 29.9 °C | 72.8 % | | 00:56 |
| 1155639 | 2026-09-06 00:56:05 | 89M1B | 32.2 °C | 68.4 % | | 00:56 |
| 1155638 | 2026-09-06 00:55:52 | 4529D | 30.4 °C | 66.9 % | | 00:55 |
| 1155637 | 2026-09-06 00:53:37 | 4529C | 28.4 °C | 40.4 % | | 00:53 |
| 1155636 | 2026-09-06 00:52:41 | 20402 | 30.7 °C | 50.7 % | | 00:52 |
| 1155635 | 2026-09-06 00:48:54 | 4529A | 29.7 °C | 65.9 % | | 00:48 |
| 1155634 | 2026-09-06 00:46:36 | 89M1A | 30.1 °C | 72.9 % | | 00:46 |
| 1155633 | 2026-09-06 00:46:26 | 89M1B | 32.4 °C | 68.5 % | | 00:46 |
| 1155632 | 2026-09-06 00:46:18 | 4529D | 30.7 °C | 66.9 % | | 00:46 |
| 1155631 | 2026-09-06 00:43:35 | 4529C | 28.7 °C | 40.3 % | | 00:43 |
| 1155630 | 2026-09-06 00:42:31 | 20402 | 30.6 °C | 50.7 % | | 00:42 |
| 1155629 | 2026-09-06 00:38:42 | 4529A | 29.5 °C | 63.5 % | | 00:38 |
| 1155628 | 2026-09-06 00:36:58 | 89M1A | 29.8 °C | 73.6 % | | 00:36 |
| 1155627 | 2026-09-06 00:36:48 | 89M1B | 32.3 °C | 68.5 % | | 00:36 |
| 1155626 | 2026-09-06 00:36:45 | 4529D | 29.8 °C | 66.0 % | | 00:36 |
| 1155625 | 2026-09-06 00:33:32 | 4529C | 28.7 °C | 40.2 % | | 00:33 |
| 1155624 | 2026-09-06 00:32:21 | 20402 | 30.7 °C | 50.7 % | | 00:32 |
| 1155623 | 2026-09-06 00:28:30 | 4529A | 29.4 °C | 65.7 % | | 00:28 |
| 1155622 | 2026-09-06 00:27:21 | 89M1A | 29.8 °C | 73.5 % | | 00:27 |
| 1155621 | 2026-09-06 00:27:12 | 4529D | 29.4 °C | 65.5 % | | 00:27 |
| 1155620 | 2026-09-06 00:27:10 | 89M1B | 32.3 °C | 68.3 % | | 00:27 |
| 1155619 | 2026-09-06 00:23:30 | 4529C | 28.8 °C | 40.1 % | | 00:23 |
| 1155618 | 2026-09-06 00:22:10 | 20402 | 30.7 °C | 50.5 % | | 00:22 |
| 1155617 | 2026-09-06 00:18:18 | 4529A | 29.6 °C | 66.8 % | | 00:18 |
| 1155616 | 2026-09-06 00:17:43 | 89M1A | 29.8 °C | 73.6 % | | 00:17 |
| 1155615 | 2026-09-06 00:17:39 | 4529D | 29.5 °C | 65.5 % | | 00:17 |
| 1155614 | 2026-09-06 00:17:31 | 89M1B | 32.3 °C | 68.2 % | | 00:17 |
| 1155613 | 2026-09-06 00:13:28 | 4529C | 29.0 °C | 41.7 % | | 00:13 |
| 1155612 | 2026-09-06 00:11:59 | 20402 | 30.6 °C | 50.5 % | | 00:11 |
| 1155611 | 2026-09-06 00:08:07 | 4529A | 29.6 °C | 67.0 % | | 00:08 |
| 1155610 | 2026-09-06 00:08:06 | 89M1A | 29.9 °C | 73.0 % | | 00:08 |
| 1155609 | 2026-09-06 00:08:05 | 4529D | 29.3 °C | 65.1 % | | 00:08 |
| 1155608 | 2026-09-06 00:07:53 | 89M1B | 32.5 °C | 68.1 % | | 00:07 |
| 1155607 | 2026-09-06 00:03:25 | 4529C | 28.9 °C | 42.9 % | | 00:03 |
| 1155606 | 2026-09-06 00:01:47 | 20402 | 30.7 °C | 50.5 % | | 00:01 |
| 1155605 | 2026-09-05 23:58:32 | 4529D | 31.1 °C | 66.4 % | | 23:58 |
| 1155604 | 2026-09-05 23:58:29 | 89M1A | 30.2 °C | 72.3 % | | 23:58 |
| 1155603 | 2026-09-05 23:58:14 | 89M1B | 32.5 °C | 68.0 % | | 23:58 |
| 1155602 | 2026-09-05 23:57:55 | 4529A | 30.1 °C | 66.3 % | | 23:57 |
| 1155601 | 2026-09-05 23:53:23 | 4529C | 29.0 °C | 42.1 % | | 23:53 |
| 1155600 | 2026-09-05 23:51:35 | 20402 | 30.6 °C | 50.4 % | | 23:51 |
| 1155599 | 2026-09-05 23:48:58 | 4529D | 29.9 °C | 65.4 % | | 23:48 |
| 1155598 | 2026-09-05 23:48:52 | 89M1A | 30.4 °C | 72.5 % | | 23:48 |
| 1155597 | 2026-09-05 23:48:35 | 89M1B | 32.3 °C | 67.4 % | | 23:48 |
| 1155596 | 2026-09-05 23:47:41 | 4529A | 30.1 °C | 66.5 % | | 23:47 |
| 1155595 | 2026-09-05 23:43:20 | 4529C | 29.1 °C | 41.4 % | | 23:43 |
| 1155594 | 2026-09-05 23:41:24 | 20402 | 30.7 °C | 50.3 % | | 23:41 |
| 1155593 | 2026-09-05 23:39:25 | 4529D | 31.8 °C | 66.9 % | | 23:39 |
| 1155592 | 2026-09-05 23:39:15 | 89M1A | 30.4 °C | 73.6 % | | 23:39 |
| 1155591 | 2026-09-05 23:38:56 | 89M1B | 32.3 °C | 66.8 % | | 23:38 |
| 1155590 | 2026-09-05 23:37:36 | 4529A | 30.2 °C | 64.7 % | | 23:37 |
| 1155589 | 2026-09-05 23:33:18 | 4529C | 29.0 °C | 39.4 % | | 23:33 |
| 1155588 | 2026-09-05 23:31:13 | 20402 | 30.7 °C | 50.0 % | | 23:31 |
| 1155587 | 2026-09-05 23:29:51 | 4529D | 30.7 °C | 65.8 % | | 23:29 |
| 1155586 | 2026-09-05 23:29:38 | 89M1A | 30.3 °C | 72.4 % | | 23:29 |
| 1155585 | 2026-09-05 23:29:17 | 89M1B | 32.2 °C | 65.8 % | | 23:29 |
| 1155584 | 2026-09-05 23:27:31 | 4529A | 29.6 °C | 61.9 % | | 23:27 |
| 1155583 | 2026-09-05 23:23:16 | 4529C | 28.8 °C | 38.0 % | | 23:23 |
| 1155582 | 2026-09-05 23:21:03 | 20402 | 30.7 °C | 49.6 % | | 23:21 |
| 1155581 | 2026-09-05 23:20:17 | 4529D | 31.2 °C | 66.1 % | | 23:20 |
| 1155580 | 2026-09-05 23:20:00 | 89M1A | 30.6 °C | 72.2 % | | 23:20 |
| 1155579 | 2026-09-05 23:19:39 | 89M1B | 32.2 °C | 65.7 % | | 23:19 |
| 1155578 | 2026-09-05 23:17:27 | 4529A | 29.6 °C | 64.6 % | | 23:17 |
| 1155577 | 2026-09-05 23:13:13 | 4529C | 28.6 °C | 36.6 % | | 23:13 |
| 1155576 | 2026-09-05 23:10:53 | 20402 | 30.6 °C | 49.3 % | | 23:10 |
| 1155575 | 2026-09-05 23:10:43 | 4529D | 30.9 °C | 66.0 % | | 23:10 |
Data every 20 minute.